Ketchikan, AK

2:28 AM AKST on January 21, 2019 (GMT -0900)
Ketchikan International

Weather History for PAKT - December, 2018

Change the Weather History Date:

Monday, December 24, 2018

  Actual Average Record
Temperature  
Mean Temperature 37 °F -  
Max Temperature 39 °F 42 °F 53 °F (1966)
Min Temperature 35 °F 32 °F 6 °F (1964)
Degree Days  
Heating Degree Days 28    
Moisture  
Dew Point 36 °F    
Average Humidity 95    
Maximum Humidity 100    
Minimum Humidity 93    
Precipitation  
Precipitation 0.04 in - - ()
Sea Level Pressure  
Sea Level Pressure 29.97 in    
Wind  
Wind Speed 4 mph (SSE)    
Max Wind Speed 6 mph    
Max Gust Speed -    
Visibility 10 miles    
Events Rain    
Averages and records for this station are not official NWS values.
T = Trace of Precipitation, MM = Missing Value Source: NWS Daily Summary

Daily Weather History Graph

Daily Weather History Graph

Search for Another Location

Airport or City:

Astronomy

Dec. 24, 2018 Rise Set
Actual Time 8:13 AM AKST 3:19 PM AKST
Civil Twilight 7:27 AM AKST 4:05 PM AKST
Nautical Twilight 6:39 AM AKST 4:54 PM AKST
Astronomical Twilight 5:54 AM AKST 5:38 PM AKST
Moon 6:05 PM AKST (12/24) 9:54 AM AKST (12/24)
Length of Visible Light 8h 38m
Length of Day
7h 06m
Waning Gibbous, 94% of the Moon is Illuminated
Dec 24
Waning Gibbous
Dec 29
Last Quarter
Jan 5
New
Jan 13
First Quarter
Jan 20
Full

Hourly Weather History & Observations

Time (AKST) Temp. Windchill Dew Point Humidity Pressure Visibility Wind Dir Wind Speed Gust Speed Precip Events Conditions
12:08 AM 36.0 °F 33.3 °F 35.1 °F 97% 29.74 in 10.0 mi South 3.5 mph - 0.00 in Rain Light Rain
12:40 AM 36.0 °F 33.3 °F 35.1 °F 97% 29.76 in 10.0 mi South 3.5 mph - 0.00 in Rain Light Rain
12:49 AM 35.6 °F 32.8 °F 33.8 °F 93% 29.77 in 10.0 mi SSE 3.5 mph - 0.01 in Rain Light Rain
12:53 AM 36.0 °F 33.3 °F 35.1 °F 97% 29.77 in 10.0 mi SSE 3.5 mph - 0.01 in Rain Light Rain
1:06 AM 36.0 °F 33.3 °F 35.1 °F 97% 29.78 in 10.0 mi South 3.5 mph - 0.00 in Rain Light Rain
1:24 AM 36.0 °F 33.3 °F 34.0 °F 93% 29.79 in 10.0 mi South 3.5 mph - 0.00 in Rain Light Rain
1:53 AM 36.0 °F 32.1 °F 34.0 °F 93% 29.82 in 10.0 mi South 4.6 mph - 0.00 in Rain Light Rain
2:53 AM 37.0 °F 33.3 °F 35.1 °F 93% 29.85 in 10.0 mi South 4.6 mph - 0.01 in Rain Light Rain
3:53 AM 37.0 °F - 35.1 °F 93% 29.88 in 10.0 mi Calm Calm - 0.00 in   Overcast
4:53 AM 37.0 °F 32.4 °F 35.1 °F 93% 29.90 in 10.0 mi South 5.8 mph - 0.01 in Rain Light Rain
5:36 AM 37.0 °F 32.4 °F 36.0 °F 96% 29.91 in 10.0 mi South 5.8 mph - 0.01 in Rain Light Rain
5:44 AM 37.0 °F 33.3 °F 36.0 °F 96% 29.91 in 10.0 mi South 4.6 mph - 0.01 in Rain Light Rain
5:53 AM 37.0 °F 33.3 °F 36.0 °F 96% 29.92 in 10.0 mi SSE 4.6 mph - 0.01 in Rain Light Rain
6:06 AM 37.0 °F 33.3 °F 36.0 °F 96% 29.92 in 10.0 mi South 4.6 mph - 0.00 in Rain Light Rain
6:53 AM 37.4 °F 33.8 °F 35.6 °F 93% 29.93 in 10.0 mi South 4.6 mph - N/A   Overcast
7:51 AM 37.4 °F - 35.6 °F 93% 29.94 in 10.0 mi Calm Calm - N/A   Overcast
7:53 AM 37.4 °F 34.9 °F 35.6 °F 93% 29.95 in 10.0 mi SSE 3.5 mph - N/A   Overcast
8:53 AM 37.4 °F 33.8 °F 35.6 °F 93% 29.98 in 10.0 mi SSE 4.6 mph - N/A   Overcast
9:53 AM 37.4 °F 33.8 °F 37.4 °F 100% 30.00 in 5.0 mi SSE 4.6 mph - N/A   Overcast
10:53 AM 39.2 °F 35.9 °F 37.4 °F 93% 30.01 in 8.0 mi ESE 4.6 mph - N/A   Overcast
11:53 AM 39.2 °F 35.9 °F 39.2 °F 100% 30.01 in 7.0 mi South 4.6 mph - N/A   Overcast
12:53 PM 39.2 °F 35.0 °F 39.2 °F 100% 30.02 in 10.0 mi SSE 5.8 mph - N/A   Mostly Cloudy
1:53 PM 39.2 °F 37.0 °F 39.2 °F 100% 30.04 in 8.0 mi SSE 3.5 mph - N/A Rain Light Rain
2:53 PM 39.2 °F 35.9 °F 39.2 °F 100% 30.06 in 10.0 mi South 4.6 mph - N/A   Mostly Cloudy
3:53 PM 39.2 °F 35.9 °F 37.4 °F 93% 30.07 in 10.0 mi SSE 4.6 mph - N/A   Overcast
4:53 PM 39.2 °F 37.0 °F 37.4 °F 93% 30.09 in 10.0 mi South 3.5 mph - N/A   Overcast
5:53 PM 39.2 °F 35.9 °F 37.4 °F 93% 30.09 in 10.0 mi South 4.6 mph - N/A   Overcast
6:51 PM 39.2 °F 35.0 °F 37.4 °F 93% 30.10 in 10.0 mi SSE 5.8 mph - N/A   Overcast
7:53 PM 37.4 °F 33.8 °F 37.4 °F 100% 30.11 in 10.0 mi South 4.6 mph - N/A   Overcast
8:53 PM 39.2 °F 37.0 °F 37.4 °F 93% 30.11 in 10.0 mi SSE 3.5 mph - N/A   Overcast
9:40 PM 37.9 °F 35.5 °F 37.0 °F 97% 30.12 in 10.0 mi South 3.5 mph - 0.00 in   Overcast
9:53 PM 37.9 °F 35.5 °F 37.0 °F 97% 30.13 in 10.0 mi South 3.5 mph - 0.00 in   Overcast
10:53 PM 39.0 °F 36.8 °F 37.0 °F 93% 30.14 in 10.0 mi SSE 3.5 mph - N/A   Overcast
11:34 PM 39.0 °F 35.7 °F 37.9 °F 96% 30.14 in 10.0 mi SSE 4.6 mph - N/A   Overcast
11:53 PM 39.0 °F 36.8 °F 37.9 °F 96% 30.15 in 10.0 mi SSE 3.5 mph - N/A   Overcast